Wind_Speed
26 26 25 25 24 23 23 23 23 23 23 23 23 23 22 22 22 23 24 24 24 25 24 25 26 26 26 25 24 24 24 22 22 21 20 18 17 17 16 16 15 14 14
27 27 27 26 26 24 23 23 22 22 22 22 22 22 21 21 21 21 21 21 22 23 24 24 25 26 27 27 26 25 26 26 25 24 23 22 21 20 19 18 17 16 16
29 27 27 27 26 25 23 22 22 21 21 21 21 21 20 19 18 19 19 19 19 20 21 24 25 25 26 27 28 28 28 28 29 28 26 25 24 23 22 21 20 19 19
31 28 27 25 24 23 22 22 21 20 20 19 19 18 17 17 16 16 17 18 18 18 19 21 23 25 25 26 28 29 30 29 30 30 29 28 27 26 25 24 22 22 21
29 28 26 25 24 23 22 21 20 20 19 19 18 17 17 16 16 15 15 16 17 17 18 19 20 22 24 25 27 27 28 29 30 30 30 30 30 29 28 26 25 24 24
30 29 26 24 23 22 22 21 20 20 19 18 18 17 17 16 16 15 15 15 15 16 16 17 18 20 21 22 23 25 27 29 30 31 31 31 32 32 31 29 28 27 26
30 28 24 23 22 22 22 22 21 21 21 20 19 18 18 17 16 16 15 15 15 15 14 15 16 18 20 21 22 23 24 26 29 30 31 31 32 32 33 32 31 30 28
27 25 22 22 22 22 21 22 22 22 22 21 20 20 19 18 18 16 16 15 15 15 14 14 15 16 17 19 21 22 23 24 26 29 30 31 31 31 32 32 33 32 30
27 25 24 23 23 23 22 23 23 24 24 23 22 22 21 20 20 19 18 17 16 15 15 14 15 15 16 18 20 21 22 23 24 26 28 30 30 31 32 32 33 33 32
28 29 28 27 26 26 25 25 25 25 25 25 25 24 24 23 22 21 20 18 17 17 16 16 16 16 17 18 19 21 22 23 24 25 27 29 30 31 32 32 33 34 33
31 31 31 30 30 29 28 28 28 28 28 28 28 27 27 26 25 23 22 21 20 18 17 17 17 17 17 18 18 19 20 21 22 24 25 27 29 30 31 32 32 33 34
36 36 35 34 34 34 33 33 32 31 31 31 31 31 30 29 28 27 25 24 23 21 19 18 18 18 18 18 18 18 19 20 21 22 23 25 27 28 29 30 31 32 33
42 41 41 40 40 39 39 38 37 36 35 35 35 34 34 33 32 30 29 27 26 24 22 21 20 19 19 19 19 19 19 19 20 21 22 23 25 26 28 30 31 31 31
47 47 46 46 45 45 44 44 42 41 40 39 39 38 38 37 36 34 32 30 29 27 25 23 22 21 20 19 19 19 19 20 20 21 21 22 24 26 27 29 31 31 31
51 51 51 51 51 50 50 49 48 47 45 44 43 43 41 40 39 38 36 34 32 30 28 26 24 23 21 20 20 20 20 20 20 21 21 22 23 25 26 27 29 30 30
56 55 55 55 55 55 55 54 53 52 51 50 48 47 45 44 43 42 40 37 35 33 30 29 27 25 23 22 20 20 20 21 20 20 20 21 23 25 26 27 29 29 30
59 59 59 58 58 58 58 58 57 57 56 55 53 51 49 48 47 45 43 41 38 36 33 31 30 27 26 24 22 21 21 21 20 20 20 21 22 23 24 26 28 29 29
61 61 61 61 61 61 60 61 61 61 60 59 58 56 54 52 50 48 46 44 41 39 36 33 32 30 28 26 24 22 22 21 21 21 20 21 22 22 23 24 25 27 28
58 59 60 61 61 62 62 62 62 63 63 62 61 60 58 56 53 52 50 47 44 42 39 36 34 32 29 27 25 24 22 22 22 21 22 22 22 22 23 24 24 24 26
51 52 53 55 57 59 60 61 63 63 64 64 64 63 61 59 57 54 52 50 48 45 42 38 35 33 31 28 26 25 23 23 22 22 22 22 22 22 23 24 24 24 25
45 45 46 47 50 53 55 58 60 61 62 63 63 63 63 62 60 57 55 52 50 47 44 40 37 34 31 29 27 26 24 23 23 22 22 23 23 23 24 24 25 25 25
41 41 41 42 44 46 49 51 54 57 59 61 62 63 62 62 61 59 57 55 52 48 46 43 39 36 33 31 29 27 25 24 24 23 23 23 23 23 24 24 25 24 25
39 38 37 37 38 40 42 44 47 50 52 55 58 60 61 61 60 60 59 57 53 51 48 44 41 38 35 32 30 28 26 24 24 24 24 23 23 23 23 24 24 23 24
38 37 35 35 34 35 36 37 39 41 43 46 50 54 57 58 59 59 59 57 55 52 49 46 42 39 37 34 32 29 27 25 24 24 23 23 23 23 24 24 23 23 24
36 35 34 33 33 33 33 33 34 35 36 38 41 45 49 52 55 57 57 56 54 53 51 47 43 40 38 35 33 30 28 26 25 25 24 24 23 22 23 23 23 22 23
35 33 32 31 30 30 30 30 30 31 32 33 35 38 43 46 49 53 54 54 53 52 51 49 45 42 39 36 34 31 29 27 26 25 24 24 23 23 23 23 23 23 23
Wind_Direction
279 281 283 283 282 281 279 279 278 276 272 271 271 271 271 270 268 268 266 262 260 258 256 252 251 248 246 245 243 242 240 239 239 239 239 238 237 234 233 232 234 237 237
272 275 278 279 279 278 279 280 281 279 274 271 270 269 269 270 270 271 269 265 262 260 257 254 254 251 249 245 245 243 241 241 240 240 240 240 240 239 237 235 237 238 239
266 271 274 276 275 275 277 278 278 278 273 271 272 272 271 270 273 270 267 266 263 262 261 257 254 253 253 251 250 246 244 243 241 240 241 242 241 241 241 239 239 240 240
263 267 270 273 275 275 275 275 275 274 270 268 268 268 268 267 269 268 267 268 267 267 267 264 260 257 255 256 254 251 247 244 243 243 243 243 243 243 242 242 242 242 241
262 264 268 268 270 271 270 270 268 267 264 262 262 263 263 264 265 267 269 270 269 270 271 269 266 262 260 260 257 254 250 248 246 245 244 245 245 245 244 243 243 243 242
261 263 264 268 270 268 267 265 264 263 261 258 258 257 258 260 262 264 266 269 271 272 272 272 268 264 262 262 259 255 253 252 250 248 246 247 246 246 245 244 243 244 242
264 264 265 267 267 267 264 263 261 259 257 255 254 254 254 255 258 261 264 267 270 271 272 273 272 268 264 263 261 259 257 256 253 252 251 250 248 247 246 245 244 243 243
266 267 271 268 266 264 263 261 259 256 254 251 250 250 251 253 256 259 261 263 267 268 271 272 273 271 266 264 261 259 260 258 256 254 253 251 250 248 247 245 243 243 243
270 269 270 272 267 264 262 261 259 256 252 249 248 247 249 252 254 256 259 261 265 266 267 270 273 274 272 268 264 264 264 263 260 256 252 251 250 250 248 246 244 243 243
275 273 271 272 268 265 263 261 258 256 254 250 248 247 246 248 252 255 256 259 263 266 269 271 273 276 276 272 270 270 267 264 262 259 255 251 249 249 249 247 245 243 242
276 273 270 268 266 264 263 261 259 257 254 252 249 247 246 246 248 252 255 257 259 263 269 272 273 277 279 277 274 272 269 265 263 259 256 253 249 248 247 246 244 243 243
274 272 269 266 265 263 262 261 259 257 255 253 251 249 247 246 246 248 252 256 259 261 265 270 273 275 276 276 275 273 270 267 264 260 255 253 250 249 247 245 244 243 242
270 269 266 264 263 261 261 260 259 257 255 253 252 250 248 247 247 247 248 252 256 260 263 266 271 273 274 274 273 272 270 267 265 260 258 254 252 248 247 245 243 242 241
270 267 264 262 261 259 258 257 256 255 254 252 251 250 249 248 247 247 247 248 251 255 260 263 267 270 271 272 271 272 271 268 265 263 260 255 252 250 249 246 243 242 242
269 266 263 261 259 258 257 256 254 253 252 252 251 250 250 249 248 248 247 247 249 251 255 259 263 266 267 269 269 270 271 270 267 264 261 257 254 251 248 246 243 242 242
268 266 263 261 259 257 255 254 253 251 250 250 250 249 249 249 249 248 247 247 247 249 251 256 259 262 265 266 268 269 270 271 269 266 262 260 255 251 249 246 244 243 242
268 266 263 261 258 256 254 253 251 250 249 248 248 247 247 246 247 247 246 247 247 247 248 251 255 257 261 264 267 268 268 270 267 264 261 259 257 253 250 247 245 244 242
269 266 263 260 258 256 254 253 251 250 248 247 246 246 245 245 244 245 245 245 246 246 246 247 250 253 256 260 263 265 266 266 266 264 260 258 256 253 250 248 247 244 240
270 266 263 260 257 255 253 252 251 249 248 247 246 244 244 243 243 243 243 243 244 244 244 245 246 250 252 255 258 262 263 263 263 261 258 256 254 253 251 249 248 244 240
271 268 264 261 257 255 253 251 250 249 248 247 246 244 242 241 241 241 241 241 242 242 242 242 243 245 248 250 254 258 259 259 259 258 257 255 253 251 250 249 247 244 243
271 267 264 261 258 256 253 251 250 249 248 246 245 244 242 241 239 239 238 239 239 239 239 239 240 242 244 247 249 252 253 255 256 255 257 255 253 251 250 248 245 243 241
270 267 264 262 260 258 255 252 250 249 248 247 245 243 241 240 239 237 236 236 236 236 236 237 237 239 241 243 246 248 249 252 253 254 255 254 252 250 249 247 244 242 240
269 266 263 261 259 258 256 254 252 250 249 247 245 243 241 239 237 236 235 234 233 233 234 234 235 236 237 239 241 244 245 248 251 253 253 252 251 248 246 244 243 242 241
267 265 262 260 259 257 257 255 253 251 249 248 245 242 240 238 236 235 233 232 231 231 231 231 231 232 233 235 237 240 243 246 249 250 250 250 249 247 243 242 242 241 242
265 262 260 259 258 257 257 255 253 250 248 246 244 241 238 236 234 232 231 230 229 228 227 227 227 228 229 232 234 237 241 243 244 246 247 247 247 246 243 240 240 240 240
262 258 257 257 256 255 254 254 253 250 248 245 243 240 237 234 231 229 227 226 225 224 224 224 224 225 226 228 230 234 237 239 241 244 245 244 243 243 242 240 239 239 239
Height
5856 5855 5854 5854 5853 5852 5851 5851 5850 5850 5850 5850 5851 5851 5851 5851 5852 5853 5853 5853 5854 5855 5857 5858 5859 5861 5862 5864 5866 5869 5871 5873 5875 5876 5878 5880 5881 5883 5884 5886 5888 5890 5891
5849 5848 5848 5848 5847 5846 5845 5845 5845 5845 5845 5845 5845 5846 5846 5846 5847 5847 5847 5848 5848 5850 5851 5852 5853 5855 5856 5858 5860 5863 5865 5867 5869 5871 5874 5876 5878 5879 5881 5883 5885 5886 5888
5841 5841 5841 5841 5840 5840 5840 5839 5839 5839 5839 5840 5841 5841 5841 5841 5842 5842 5842 5843 5844 5845 5846 5847 5848 5849 5850 5852 5854 5856 5858 5861 5863 5866 5868 5871 5873 5875 5877 5879 5881 5883 5885
5832 5833 5833 5834 5833 5833 5833 5834 5834 5834 5834 5835 5835 5836 5836 5837 5837 5838 5838 5839 5840 5841 5841 5841 5843 5844 5845 5846 5848 5850 5852 5854 5857 5859 5862 5865 5867 5870 5872 5874 5876 5878 5881
5823 5825 5825 5827 5828 5827 5828 5828 5829 5829 5829 5830 5830 5831 5832 5832 5833 5834 5834 5835 5835 5836 5836 5837 5838 5839 5840 5841 5842 5843 5846 5848 5850 5853 5855 5858 5861 5864 5866 5869 5871 5874 5876
5816 5818 5819 5820 5821 5821 5822 5823 5823 5824 5825 5825 5826 5827 5827 5828 5829 5829 5830 5831 5831 5832 5832 5832 5833 5834 5835 5836 5836 5838 5840 5841 5844 5846 5848 5851 5854 5857 5860 5863 5865 5868 5871
5810 5812 5812 5813 5814 5815 5816 5817 5817 5818 5819 5820 5821 5822 5822 5823 5824 5825 5826 5826 5827 5828 5828 5828 5828 5829 5829 5830 5831 5832 5834 5835 5837 5839 5841 5844 5847 5849 5852 5856 5859 5862 5864
5804 5805 5805 5806 5807 5808 5810 5810 5811 5812 5813 5814 5815 5816 5818 5819 5820 5820 5821 5822 5823 5823 5824 5824 5824 5824 5824 5825 5826 5827 5828 5829 5830 5833 5835 5837 5840 5842 5845 5848 5851 5855 5858
5797 5798 5798 5800 5801 5802 5803 5803 5804 5806 5807 5808 5809 5811 5812 5813 5814 5816 5816 5817 5818 5819 5819 5819 5819 5819 5819 5819 5820 5821 5822 5823 5824 5826 5828 5830 5833 5835 5838 5841 5844 5847 5851
5790 5791 5792 5792 5793 5794 5795 5796 5797 5799 5800 5801 5803 5805 5806 5807 5809 5810 5811 5812 5813 5814 5814 5814 5814 5814 5814 5814 5814 5815 5816 5817 5818 5819 5821 5823 5825 5828 5831 5834 5837 5840 5843
5782 5783 5783 5784 5785 5786 5787 5788 5790 5791 5792 5794 5796 5797 5799 5801 5802 5804 5805 5806 5807 5808 5809 5809 5809 5809 5809 5809 5809 5809 5810 5811 5812 5813 5814 5816 5818 5821 5824 5826 5829 5832 5836
5773 5773 5774 5774 5775 5776 5778 5779 5780 5782 5783 5785 5787 5789 5791 5793 5795 5797 5798 5799 5801 5802 5803 5803 5804 5804 5804 5803 5803 5803 5804 5805 5805 5806 5807 5809 5811 5814 5816 5819 5822 5825 5828
5761 5762 5762 5763 5764 5765 5767 5768 5770 5771 5773 5775 5778 5780 5782 5785 5787 5789 5791 5793 5794 5795 5796 5797 5798 5798 5798 5798 5798 5798 5798 5799 5799 5800 5801 5803 5805 5807 5809 5812 5815 5818 5821
5747 5748 5748 5749 5751 5752 5754 5756 5758 5759 5761 5764 5767 5769 5772 5775 5778 5780 5783 5785 5787 5788 5789 5790 5791 5792 5792 5793 5793 5793 5793 5793 5794 5795 5795 5797 5798 5800 5802 5805 5808 5811 5814
5731 5731 5732 5734 5735 5737 5739 5741 5744 5746 5749 5752 5754 5757 5760 5763 5766 5770 5773 5776 5779 5781 5782 5783 5784 5786 5786 5787 5787 5787 5787 5787 5788 5789 5790 5791 5792 5794 5795 5798 5801 5804 5806
5711 5712 5714 5715 5717 5720 5722 5725 5728 5731 5734 5737 5741 5744 5748 5751 5755 5758 5762 5766 5769 5772 5774 5776 5777 5778 5780 5780 5781 5781 5782 5782 5782 5783 5783 5784 5786 5787 5789 5791 5794 5797 5800
5691 5692 5693 5695 5698 5700 5703 5706 5710 5714 5718 5722 5725 5730 5734 5738 5742 5746 5750 5754 5758 5762 5765 5767 5769 5771 5772 5774 5774 5775 5775 5776 5776 5777 5777 5778 5780 5781 5783 5785 5787 5790 5793
5669 5670 5671 5673 5676 5679 5682 5686 5690 5694 5699 5704 5709 5713 5718 5723 5728 5732 5737 5742 5746 5751 5755 5758 5761 5763 5765 5766 5768 5769 5769 5770 5770 5771 5772 5773 5774 5775 5777 5779 5781 5783 5786
5646 5646 5648 5650 5653 5656 5660 5664 5669 5674 5679 5684 5690 5695 5701 5707 5713 5718 5723 5728 5734 5739 5743 5747 5751 5754 5757 5759 5761 5762 5763 5764 5764 5765 5766 5767 5768 5770 5771 5773 5775 5777 5780
5624 5624 5625 5628 5630 5634 5638 5642 5647 5652 5658 5664 5670 5676 5682 5689 5696 5703 5709 5715 5720 5726 5731 5737 5741 5745 5748 5751 5753 5754 5756 5757 5758 5759 5760 5761 5762 5764 5766 5768 5770 5772 5774
5606 5606 5607 5609 5610 5614 5617 5621 5626 5631 5636 5643 5649 5656 5663 5670 5678 5686 5693 5700 5706 5713 5719 5725 5731 5735 5739 5742 5745 5747 5749 5750 5751 5753 5754 5755 5756 5758 5760 5762 5764 5766 5768
5589 5589 5591 5592 5593 5596 5599 5602 5606 5611 5616 5622 5629 5636 5643 5652 5660 5669 5677 5685 5693 5700 5707 5714 5720 5725 5730 5733 5736 5739 5741 5743 5745 5747 5748 5749 5750 5752 5754 5756 5758 5760 5763
5572 5574 5575 5577 5578 5580 5582 5585 5589 5593 5598 5603 5609 5616 5624 5633 5641 5651 5660 5669 5678 5686 5695 5702 5709 5715 5720 5724 5728 5731 5733 5736 5738 5740 5741 5743 5744 5746 5748 5750 5752 5754 5757
5557 5559 5561 5563 5565 5567 5569 5571 5574 5578 5582 5586 5592 5598 5606 5615 5624 5633 5643 5653 5663 5673 5682 5690 5698 5704 5709 5714 5719 5723 5725 5728 5731 5733 5735 5737 5739 5740 5743 5745 5747 5749 5751
5543 5545 5547 5550 5552 5555 5557 5559 5562 5566 5569 5573 5577 5582 5589 5598 5607 5617 5628 5639 5649 5659 5668 5678 5686 5693 5699 5705 5710 5714 5718 5721 5724 5727 5729 5731 5733 5735 5737 5739 5741 5744 5746
5529 5532 5535 5538 5541 5543 5546 5549 5551 5555 5558 5561 5565 5569 5576 5583 5591 5600 5612 5624 5635 5646 5656 5666 5674 5682 5689 5695 5701 5706 5711 5714 5717 5720 5723 5725 5727 5729 5731 5734 5736 5738 5741